Price, UT

4:26 AM MST on February 18, 2018 (GMT -0700)
Carbon County

Weather History for KPUC - November, 2012

Change the Weather History Date:

Thursday, November 29, 2012

  Actual Average Record
Temperature  
Mean Temperature 38 °F -  
Max Temperature 48 °F 38 °F 55 °F (1986)
Min Temperature 27 °F 18 °F 7 °F (1979)
Degree Days  
Heating Degree Days 28    
Moisture  
Dew Point 14 °F    
Average Humidity 38    
Maximum Humidity 53    
Minimum Humidity 26    
Precipitation  
Precipitation 0.00 in - - ()
Sea Level Pressure  
Sea Level Pressure 30.21 in    
Wind  
Wind Speed 3 mph (ENE)    
Max Wind Speed 10 mph    
Max Gust Speed -    
Visibility 10 miles    
Events      
Averages and records for this station are not official NWS values.
T = Trace of Precipitation, MM = Missing Value Source: NWS Daily Summary

Daily Weather History Graph

Daily Weather History Graph

Search for Another Location

Airport or City:

Trip Planner

Search our weather history database for the weather conditions in past years. The results will help you decide how hot, cold, wet, or windy it might be!

Date:

Astronomy

Nov. 29, 2012 Rise Set
Actual Time 7:23 AM MST 4:59 PM MST
Civil Twilight 6:53 AM MST 5:29 PM MST
Nautical Twilight 6:20 AM MST 6:02 PM MST
Astronomical Twilight 5:47 AM MST 6:35 PM MST
Moon 6:05 PM MST (11/29) 8:12 AM MST (11/29)
Length of Visible Light 10h 36m
Length of Day
9h 36m
Full, 99% of the Moon is Illuminated
Nov 29
Full
Dec 6
Last Quarter
Dec 13
New
Dec 19
First Quarter
Dec 28
Full

Hourly Weather History & Observations

Time (MST) Temp. Windchill Dew Point Humidity Pressure Visibility Wind Dir Wind Speed Gust Speed Precip Events Conditions
12:53 AM 36.0 °F 32.1 °F 12.9 °F 39% 30.18 in 10.0 mi NE 4.6 mph - N/A   Overcast
1:53 AM 35.1 °F - 12.9 °F 40% 30.17 in 10.0 mi Calm Calm - N/A   Mostly Cloudy
2:53 AM 35.6 °F 32.8 °F 12.2 °F 38% 30.15 in 10.0 mi NE 3.5 mph - N/A   Overcast
3:53 AM 30.0 °F - 10.9 °F 45% 30.21 in 10.0 mi Calm Calm - N/A   Partly Cloudy
4:53 AM 28.0 °F - 10.9 °F 49% 30.21 in 10.0 mi Calm Calm - N/A   Partly Cloudy
5:53 AM 28.0 °F 24.2 °F 10.9 °F 49% 30.26 in 10.0 mi SE 3.5 mph - N/A   Clear
6:53 AM 27.0 °F 23.0 °F 12.0 °F 53% 30.28 in 10.0 mi Variable 3.5 mph - N/A   Clear
7:53 AM 30.0 °F 26.5 °F 12.9 °F 49% 30.28 in 10.0 mi NE 3.5 mph - N/A   Clear
8:53 AM 37.9 °F - 15.1 °F 39% 30.28 in 10.0 mi Calm Calm - N/A   Clear
9:53 AM 45.0 °F 43.5 °F 15.1 °F 30% 30.25 in 10.0 mi Variable 3.5 mph - N/A   Clear
10:53 AM 46.0 °F 43.9 °F 15.1 °F 29% 30.24 in 10.0 mi South 4.6 mph - N/A   Partly Cloudy
11:53 AM 48.0 °F - 14.0 °F 26% 30.22 in 10.0 mi SE 4.6 mph - N/A   Partly Cloudy
12:53 PM 48.0 °F - 14.0 °F 26% 30.19 in 10.0 mi SSE 5.8 mph - N/A   Clear
1:53 PM 48.9 °F - 15.1 °F 26% 30.17 in 10.0 mi SE 5.8 mph - N/A   Clear
2:53 PM 48.9 °F - 16.0 °F 27% 30.16 in 10.0 mi Calm Calm - N/A   Clear
3:53 PM 48.9 °F - 16.0 °F 27% 30.18 in 10.0 mi Calm Calm - N/A   Clear
4:53 PM 46.9 °F - 16.0 °F 29% 30.19 in 10.0 mi Calm Calm - N/A   Clear
5:53 PM 37.9 °F 31.5 °F 14.0 °F 38% 30.24 in 10.0 mi North 9.2 mph - N/A   Clear
6:53 PM 37.0 °F 29.8 °F 15.1 °F 41% 30.26 in 10.0 mi NNE 10.4 mph - N/A   Clear
7:53 PM 37.0 °F 31.6 °F 16.0 °F 42% 30.24 in 10.0 mi ENE 6.9 mph - N/A   Clear
8:53 PM 39.0 °F - 16.0 °F 39% 30.21 in 10.0 mi Calm Calm - N/A   Clear
9:53 PM 36.0 °F 32.1 °F 16.0 °F 44% 30.19 in 10.0 mi NNE 4.6 mph - N/A   Partly Cloudy
10:53 PM 36.0 °F 29.6 °F 18.0 °F 48% 30.18 in 10.0 mi NNE 8.1 mph - N/A   Clear
11:53 PM 36.0 °F 30.3 °F 18.0 °F 48% 30.17 in 10.0 mi NE 6.9 mph - N/A   Clear